Weather History for Fairfield, IL

Change the Weather History Date:

Thursday, April 10, 2014

  Actual Average (KMVN) Record (KMVN)
Temperature  
Mean Temperature 63 °F -  
Max Temperature 78 °F 63 °F 80 °F (2001)
Min Temperature 48 °F 43 °F 28 °F (1997)
Degree Days  
Heating Degree Days 2    
Growing Degree Days 13 (Base 50)    
Moisture  
Dew Point 47 °F    
Average Humidity 58    
Maximum Humidity 82    
Minimum Humidity 34    
Precipitation  
Precipitation 0.00 in - - ()
Sea Level Pressure  
Sea Level Pressure 29.92 in    
Wind  
Wind Speed 11 mph (SSW)    
Max Wind Speed 24 mph    
Max Gust Speed 33 mph    
Visibility 10 miles    
Events      
Averages and records for this station are not official NWS values.
T = Trace of Precipitation, MM = Missing Value Source: NWS Daily Summary

Daily Weather History Graph

Daily Weather History Graph

Search for Another Location

Airport:

Trip Planner

Search our weather history database for the weather conditions in past years. The results will help you decide how hot, cold, wet, or windy it might be!

Date:

Astronomy

Apr. 10, 2014 Rise Set
Actual Time 6:25 AM CDT 7:25 PM CDT
Civil Twilight 5:58 AM CDT 7:52 PM CDT
Nautical Twilight 5:25 AM CDT 8:24 PM CDT
Astronomical Twilight 4:52 AM CDT 8:58 PM CDT
Moon 3:12 PM CDT (4/10) 3:44 AM CDT (4/10)
Length of Visible Light 13h 54m
Length of Day
13h 00m
Waxing Gibbous, 80% of the Moon is Illuminated
Apr 10
Waxing Gibbous
Apr 15
Full
Apr 22
Last Quarter
Apr 29
New
May 6
First Quarter

Hourly Weather History & Observations

Time (CDT) Temp. Dew Point Humidity Pressure Visibility Wind Dir Wind Speed Gust Speed Precip Events Conditions
12:15 AM 53.6 °F 42.8 °F 67% 30.03 in 10.0 mi SSW 8.1 mph - N/A   Clear
12:35 AM 51.8 °F 42.8 °F 71% 30.02 in 10.0 mi South 6.9 mph - N/A   Clear
12:55 AM 51.8 °F 41.0 °F 67% 30.02 in 10.0 mi SSW 8.1 mph - N/A   Clear
1:15 AM 51.8 °F 41.0 °F 67% 30.02 in 10.0 mi SSW 5.8 mph - N/A   Clear
1:35 AM 51.8 °F 41.0 °F 67% 30.01 in 10.0 mi SSW 6.9 mph - N/A   Clear
1:55 AM 51.8 °F 41.0 °F 67% 30.01 in 10.0 mi SSW 5.8 mph - N/A   Clear
2:15 AM 50.0 °F 41.0 °F 71% 30.00 in 10.0 mi South 5.8 mph - N/A   Clear
2:35 AM 48.2 °F 41.0 °F 76% 29.99 in 10.0 mi South 6.9 mph - N/A   Clear
2:55 AM 48.2 °F 41.0 °F 76% 29.98 in 10.0 mi South 6.9 mph - N/A   Clear
3:15 AM 48.2 °F 42.8 °F 82% 29.98 in 10.0 mi South 8.1 mph - N/A   Clear
3:35 AM 48.2 °F 42.8 °F 82% 29.97 in 10.0 mi South 6.9 mph - N/A   Clear
3:55 AM 48.2 °F 42.8 °F 82% 29.97 in 10.0 mi South 8.1 mph - N/A   Clear
4:15 AM 48.2 °F 42.8 °F 82% 29.97 in 10.0 mi South 8.1 mph - N/A   Clear
4:35 AM 48.2 °F 42.8 °F 82% 29.97 in 10.0 mi South 8.1 mph - N/A   Clear
4:55 AM 48.2 °F 42.8 °F 82% 29.97 in 10.0 mi South 9.2 mph - N/A   Clear
5:15 AM 50.0 °F 42.8 °F 76% 29.96 in 10.0 mi South 9.2 mph - N/A   Clear
5:35 AM 50.0 °F 42.8 °F 76% 29.96 in 10.0 mi South 10.4 mph - N/A   Clear
5:55 AM 50.0 °F 42.8 °F 76% 29.96 in 10.0 mi South 10.4 mph - N/A   Clear
6:15 AM 50.0 °F 42.8 °F 76% 29.96 in 10.0 mi South 9.2 mph - N/A   Clear
6:35 AM 50.0 °F 42.8 °F 76% 29.96 in 10.0 mi South 11.5 mph - N/A   Clear
6:55 AM 51.8 °F 42.8 °F 71% 29.96 in 10.0 mi South 10.4 mph - N/A   Clear
7:15 AM 51.8 °F 42.8 °F 71% 29.96 in 10.0 mi South 13.8 mph - N/A   Clear
7:35 AM 53.6 °F 42.8 °F 67% 29.96 in 10.0 mi South 13.8 mph - N/A   Clear
7:55 AM 55.4 °F 44.6 °F 67% 29.95 in 10.0 mi South 15.0 mph - N/A   Clear
8:15 AM 55.4 °F 44.6 °F 67% 29.95 in 10.0 mi South 15.0 mph - N/A   Clear
8:35 AM 57.2 °F 44.6 °F 63% 29.94 in 10.0 mi South 17.3 mph - N/A   Clear
8:55 AM 59.0 °F 46.4 °F 63% 29.93 in 10.0 mi South 16.1 mph 19.6 mph N/A   Clear
9:15 AM 60.8 °F 44.6 °F 55% 29.93 in 10.0 mi South 18.4 mph 23.0 mph N/A   Clear
9:35 AM 62.6 °F 46.4 °F 55% 29.92 in 10.0 mi South 18.4 mph - N/A   Clear
9:55 AM 64.4 °F 46.4 °F 52% 29.91 in 10.0 mi South 19.6 mph 24.2 mph N/A   Clear
10:15 AM 66.2 °F 46.4 °F 49% 29.91 in 10.0 mi South 21.9 mph 25.3 mph N/A   Clear
10:35 AM 66.2 °F 48.2 °F 52% 29.90 in 10.0 mi South 18.4 mph - N/A   Clear
10:55 AM 68.0 °F 48.2 °F 49% 29.90 in 10.0 mi South 19.6 mph 25.3 mph N/A   Clear
11:15 AM 69.8 °F 48.2 °F 46% 29.90 in 10.0 mi South 18.4 mph 24.2 mph N/A   Clear
11:35 AM 69.8 °F 48.2 °F 46% 29.89 in 10.0 mi SSW 19.6 mph 26.5 mph N/A   Clear
11:55 AM 71.6 °F 48.2 °F 43% 29.90 in 10.0 mi SW 12.7 mph 23.0 mph N/A   Clear
12:15 PM 73.4 °F 46.4 °F 38% 29.89 in 10.0 mi SSW 18.4 mph 25.3 mph N/A   Clear
12:35 PM 73.4 °F 48.2 °F 41% 29.88 in 10.0 mi SW 18.4 mph 27.6 mph N/A   Clear
12:55 PM 75.2 °F 48.2 °F 38% 29.87 in 10.0 mi SSW 21.9 mph 28.8 mph N/A   Clear
1:35 PM 77.0 °F 50.0 °F 39% 29.85 in 10.0 mi SSW 20.7 mph 29.9 mph N/A   Clear
2:15 PM 78.8 °F 48.2 °F 34% 29.84 in 10.0 mi SW 16.1 mph 29.9 mph N/A   Clear
3:15 PM 78.8 °F 48.2 °F 34% 29.82 in 10.0 mi SW 18.4 mph 32.2 mph N/A   Clear
3:35 PM 78.8 °F 48.2 °F 34% 29.81 in 10.0 mi SSW 24.2 mph 31.1 mph N/A   Clear
3:55 PM 78.8 °F 48.2 °F 34% 29.82 in 10.0 mi SW 18.4 mph 33.4 mph N/A   Clear
4:15 PM 78.8 °F 51.8 °F 39% 29.83 in 10.0 mi SSW 19.6 mph 29.9 mph N/A   Clear
4:35 PM 78.8 °F 51.8 °F 39% 29.82 in 10.0 mi SSW 21.9 mph 29.9 mph N/A   Clear
4:55 PM 78.8 °F 51.8 °F 39% 29.82 in 10.0 mi SSW 15.0 mph 28.8 mph N/A   Clear
5:15 PM 78.8 °F 53.6 °F 42% 29.82 in 10.0 mi SSW 18.4 mph 25.3 mph N/A   Clear
5:35 PM 75.2 °F 51.8 °F 44% 29.82 in 10.0 mi SSW 19.6 mph 25.3 mph N/A   Clear
5:55 PM 75.2 °F 51.8 °F 44% 29.83 in 10.0 mi SSW 16.1 mph 23.0 mph N/A   Clear
6:15 PM 75.2 °F 51.8 °F 44% 29.83 in 10.0 mi SSW 12.7 mph 17.3 mph N/A   Clear
6:35 PM 73.4 °F 53.6 °F 50% 29.85 in 10.0 mi SSW 11.5 mph 17.3 mph N/A   Clear
6:55 PM 73.4 °F 51.8 °F 47% 29.85 in 10.0 mi SW 11.5 mph 16.1 mph N/A   Clear
7:15 PM 73.4 °F 51.8 °F 47% 29.86 in 10.0 mi SW 11.5 mph 17.3 mph N/A   Clear
7:35 PM 71.6 °F 51.8 °F 50% 29.87 in 10.0 mi SW 5.8 mph - N/A   Clear
7:55 PM 71.6 °F 51.8 °F 50% 29.89 in 10.0 mi SW 5.8 mph - N/A   Clear
8:15 PM 71.6 °F 51.8 °F 50% 29.90 in 10.0 mi SW 11.5 mph - N/A   Scattered Clouds
8:35 PM 69.8 °F 53.6 °F 56% 29.90 in 10.0 mi SSW 9.2 mph - N/A   Scattered Clouds
8:55 PM 69.8 °F 53.6 °F 56% 29.91 in 10.0 mi SSW 9.2 mph - N/A   Scattered Clouds
9:15 PM 69.8 °F 53.6 °F 56% 29.91 in 10.0 mi SSW 11.5 mph - N/A   Mostly Cloudy
9:35 PM 69.8 °F 53.6 °F 56% 29.92 in 10.0 mi SSW 11.5 mph - N/A   Scattered Clouds
9:55 PM 69.8 °F 53.6 °F 56% 29.93 in 10.0 mi SSW 6.9 mph - N/A   Clear
10:15 PM 68.0 °F 53.6 °F 60% 29.93 in 10.0 mi SSW 5.8 mph - N/A   Clear
10:35 PM 68.0 °F 53.6 °F 60% 29.93 in 10.0 mi SSW 10.4 mph - N/A   Clear
10:55 PM 68.0 °F 53.6 °F 60% 29.93 in 10.0 mi SSW 10.4 mph - N/A   Clear
11:15 PM 68.0 °F 53.6 °F 60% 29.94 in 10.0 mi SW 10.4 mph 17.3 mph N/A   Clear
11:35 PM 68.0 °F 53.6 °F 60% 29.94 in 10.0 mi SW 10.4 mph - N/A   Clear
11:55 PM 66.2 °F 53.6 °F 64% 29.94 in 10.0 mi SW 10.4 mph - N/A   Clear